| time (UTC) | temp C | wind direction | speed KPH | gust KPH | rain 1hr cm | rain 24hr cm | rain mn cm | humidity % | barometer mb |
| 20260504022226 | 7 | 259 | 0.0 | 0.0 | 0.00 | 0.00 | 0.00 | 93 | 1013.7 |
| 20260504021225 | 7 | 259 | 0.0 | 3.2 | 0.00 | 0.00 | 0.00 | 93 | 1013.7 |
| 20260504020228 | 7 | 260 | 0.0 | 0.0 | 0.00 | 0.00 | 0.00 | 92 | 1013.6 |
| 20260504015240 | 7 | 260 | 0.0 | 0.0 | 0.00 | 0.00 | 0.00 | 92 | 1013.7 |
| 20260504014223 | 7 | 260 | 0.0 | 0.0 | 0.00 | 0.00 | 0.00 | 92 | 1013.6 |
| 20260504013223 | 8 | 260 | 0.0 | 0.0 | 0.00 | 0.00 | 0.00 | 92 | 1013.5 |
| 20260504012222 | 8 | 260 | 0.0 | 0.0 | 0.00 | 0.00 | 0.00 | 92 | 1013.6 |
| 20260504011223 | 8 | 260 | 0.0 | 0.0 | 0.00 | 0.00 | 0.00 | 92 | 1013.5 |
| 20260504010223 | 8 | 260 | 0.0 | 0.0 | 0.00 | 0.00 | 0.00 | 91 | 1013.4 |
| 20260504005222 | 8 | 260 | 0.0 | 0.0 | 0.00 | 0.00 | 0.00 | 91 | 1013.6 |
| 20260504004224 | 8 | 260 | 0.0 | 0.0 | 0.00 | 0.00 | 0.00 | 91 | 1013.6 |
| 20260504003221 | 9 | 260 | 0.0 | 0.0 | 0.00 | 0.00 | 0.00 | 91 | 1013.6 |
| 20260504002224 | 9 | 260 | 0.0 | 0.0 | 0.00 | 0.00 | 0.00 | 91 | 1013.6 |
| 20260504001221 | 9 | 260 | 0.0 | 0.0 | 0.00 | 0.00 | 0.00 | 90 | 1013.7 |
| 20260504000234 | 9 | 260 | 0.0 | 0.0 | 0.00 | 0.00 | 0.00 | 89 | 1013.6 |
| 20260503233221 | 10 | 260 | 0.0 | 3.2 | 0.00 | 0.00 | 0.00 | 88 | 1013.7 |
| 20260503232222 | 10 | 260 | 0.0 | 0.0 | 0.00 | 0.00 | 0.00 | 87 | 1013.8 |
| 20260503231219 | 10 | 260 | 0.0 | 0.0 | 0.00 | 0.00 | 0.00 | 87 | 1013.7 |
| 20260503230219 | 11 | 260 | 0.0 | 0.0 | 0.00 | 0.00 | 0.00 | 86 | 1013.7 |
| 20260503225221 | 11 | 260 | 0.0 | 0.0 | 0.00 | 0.00 | 0.00 | 85 | 1013.7 |
| 20260503223231 | 11 | 260 | 0.0 | 0.0 | 0.00 | 0.00 | 0.00 | 83 | 1013.5 |
| 20260503222219 | 12 | 260 | 0.0 | 0.0 | 0.00 | 0.00 | 0.00 | 82 | 1013.5 |
| 20260503221219 | 12 | 260 | 0.0 | 3.2 | 0.00 | 0.00 | 0.00 | 82 | 1013.4 |
| 20260503220222 | 12 | 260 | 0.0 | 3.2 | 0.00 | 0.00 | 0.00 | 81 | 1013.4 |
| 20260503215217 | 13 | 261 | 0.0 | 0.0 | 0.00 | 0.00 | 0.00 | 79 | 1013.5 |
| 20260503214219 | 13 | 261 | 0.0 | 0.0 | 0.00 | 0.00 | 0.00 | 79 | 1013.5 |
| 20260503213217 | 13 | 261 | 1.6 | 4.8 | 0.00 | 0.00 | 0.00 | 78 | 1013.5 |
| 20260503212220 | 13 | 261 | 0.0 | 0.0 | 0.00 | 0.00 | 0.00 | 77 | 1013.5 |
| 20260503211214 | 14 | 261 | 0.0 | 3.2 | 0.00 | 0.00 | 0.00 | 75 | 1013.6 |
| 20260503210213 | 15 | 261 | 0.0 | 0.0 | 0.00 | 0.00 | 0.00 | 73 | 1013.5 |
| 20260503205213 | 15 | 261 | 0.0 | 0.0 | 0.00 | 0.00 | 0.00 | 72 | 1013.6 |
| 20260503204212 | 15 | 261 | 0.0 | 3.2 | 0.00 | 0.00 | 0.00 | 71 | 1013.7 |
| 20260503203215 | 15 | 261 | 0.0 | 4.8 | 0.00 | 0.00 | 0.00 | 70 | 1013.7 |
| 20260503201211 | 15 | 261 | 0.0 | 4.8 | 0.00 | 0.00 | 0.00 | 69 | 1013.6 |
| 20260503200213 | 16 | 261 | 0.0 | 4.8 | 0.00 | 0.00 | 0.00 | 68 | 1013.7 |
| 20260503195213 | 16 | 261 | 0.0 | 6.4 | 0.00 | 0.00 | 0.00 | 67 | 1013.7 |
| 20260503194210 | 16 | 263 | 0.0 | 6.4 | 0.00 | 0.00 | 0.00 | 66 | 1013.7 |
| 20260503192216 | 16 | 269 | 1.6 | 6.4 | 0.00 | 0.00 | 0.00 | 65 | 1013.6 |
| 20260503191214 | 16 | 275 | 1.6 | 4.8 | 0.00 | 0.00 | 0.00 | 67 | 1013.5 |
| 20260503190214 | 16 | 278 | 1.6 | 6.4 | 0.00 | 0.00 | 0.00 | 67 | 1013.2 |
| 20260503185213 | 16 | 258 | 0.0 | 3.2 | 0.00 | 0.00 | 0.00 | 67 | 1013.2 |
| 20260503183209 | 17 | 258 | 3.2 | 9.7 | 0.00 | 0.00 | 0.00 | 65 | 1012.7 |
| 20260503182211 | 17 | 259 | 3.2 | 11.3 | 0.00 | 0.00 | 0.00 | 65 | 1012.7 |
| 20260503181213 | 17 | 250 | 4.8 | 16.1 | 0.00 | 0.00 | 0.00 | 63 | 1012.7 |
| 20260503180212 | 17 | 265 | 6.4 | 16.1 | 0.00 | 0.00 | 0.00 | 62 | 1012.7 |
| 20260503175210 | 18 | 261 | 6.4 | 19.3 | 0.00 | 0.00 | 0.00 | 61 | 1012.5 |
| 20260503173210 | 18 | 285 | 8.0 | 12.9 | 0.00 | 0.00 | 0.00 | 57 | 1012.4 |
| 20260503171209 | 19 | 273 | 8.0 | 14.5 | 0.00 | 0.00 | 0.00 | 55 | 1012.3 |
| 20260503170209 | 19 | 267 | 4.8 | 16.1 | 0.00 | 0.00 | 0.00 | 54 | 1012.5 |
| 20260503160207 | 21 | 246 | 8.0 | 20.9 | 0.00 | 0.00 | 0.00 | 45 | 1012.0 |
| 20260503150206 | 22 | 138 | 4.8 | 14.5 | 0.00 | 0.00 | 0.00 | 40 | 1012.3 |
| 20260503140219 | 21 | 186 | 1.6 | 17.7 | 0.00 | 0.00 | 0.00 | 41 | 1012.6 |
| 20260503130205 | 21 | 173 | 3.2 | 14.5 | 0.00 | 0.00 | 0.00 | 43 | 1013.2 |
| 20260503120210 | 21 | 180 | 8.0 | 17.7 | 0.00 | 0.00 | 0.00 | 40 | 1013.2 |
| 20260503100206 | 20 | 128 | 3.2 | 14.5 | 0.00 | 0.00 | 0.00 | 49 | 1013.8 |
| 20260503090201 | 18 | 115 | 0.0 | 9.7 | 0.00 | 0.00 | 0.00 | 59 | 1014.4 |
| 20260503081203 | 16 | 94 | 0.0 | 4.8 | 0.00 | 0.00 | 0.00 | 67 | 1014.7 |
| 20260503070157 | 11 | 134 | 0.0 | 0.0 | 0.00 | 0.00 | 0.00 | 89 | 1014.5 |
| 20260503053158 | 8 | 134 | 0.0 | 0.0 | 0.00 | 0.00 | 0.00 | 93 | 1014.1 |
| 20260503052156 | 8 | 134 | 0.0 | 0.0 | 0.00 | 0.00 | 0.00 | 93 | 1014.2 |
| 20260503051156 | 7 | 134 | 0.0 | 0.0 | 0.00 | 0.00 | 0.00 | 93 | 1014.2 |
| 20260503050156 | 7 | 134 | 0.0 | 0.0 | 0.00 | 0.00 | 0.00 | 93 | 1014.3 |
| 20260503044151 | 7 | 134 | 0.0 | 0.0 | 0.00 | 0.00 | 0.00 | 93 | 1014.5 |
| 20260503043151 | 7 | 134 | 0.0 | 0.0 | 0.00 | 0.00 | 0.00 | 93 | 1014.5 |
| 20260503041155 | 7 | 134 | 0.0 | 0.0 | 0.00 | 0.00 | 0.00 | 93 | 1014.2 |
| 20260503040208 | 7 | 134 | 0.0 | 0.0 | 0.00 | 0.00 | 0.00 | 93 | 1014.2 |
| 20260503035154 | 7 | 134 | 0.0 | 0.0 | 0.00 | 0.00 | 0.00 | 93 | 1014.1 |
| 20260503034151 | 7 | 134 | 0.0 | 0.0 | 0.00 | 0.00 | 0.00 | 93 | 1014.3 |
| 20260503033154 | 7 | 134 | 0.0 | 0.0 | 0.00 | 0.00 | 0.00 | 93 | 1014.2 |
| 20260503032154 | 7 | 134 | 0.0 | 0.0 | 0.00 | 0.00 | 0.00 | 93 | 1014.4 |
| 20260503031153 | 7 | 134 | 0.0 | 0.0 | 0.00 | 0.00 | 0.00 | 93 | 1014.4 |
| 20260503030153 | 7 | 134 | 0.0 | 0.0 | 0.00 | 0.00 | 0.00 | 93 | 1014.4 |
| 20260503025155 | 8 | 134 | 0.0 | 0.0 | 0.00 | 0.00 | 0.00 | 93 | 1014.5 |
| 20260503024155 | 8 | 134 | 0.0 | 0.0 | 0.00 | 0.00 | 0.00 | 93 | 1014.6 |